 ,�O�C���x[��],����1,�O�C���x[��],����2,���ԉ��x[��],����3,���Ԏ��x[��],����4,�m��2(��󒲎�)���x[��],����5,����[��],����6
2003/2/1 0:00,-1.8,0,60,0,22.3,0,54,0,12.2,0,,1
2003/2/1 0:15,-1.8,2,58,2,22.3,2,54,2,12.2,2,,1
2003/2/1 0:30,-1.8,0,56,0,22.3,0,54,0,12.2,0,,1
2003/2/1 0:45,-1.7,2,58,2,22.4,2,53,2,12.2,2,,1
2003/2/1 1:00,-1.6,0,59,0,22.4,0,52,0,12.2,0,,1
2003/2/1 1:15,-1.6,2,60,2,22.5,2,50.5,2,12.2,2,,1
2003/2/1 1:30,-1.6,0,60,0,22.5,0,49,0,12.2,0,,1
2003/2/1 1:45,-1.6,2,62,2,22.6,2,48.5,2,12.2,2,,1
2003/2/1 2:00,-1.6,0,64,0,22.7,0,48,0,12.2,0,,1
2003/2/1 2:15,-1.6,2,67,2,22.7,2,47,2,12.2,2,,1
2003/2/1 2:30,-1.6,0,70,0,22.7,0,46,0,12.2,0,,1
2003/2/1 2:45,-1.8,2,68,2,22.4,2,46,2,12.3,2,,1
2003/2/1 3:00,-1.9,0,66,0,22.1,0,46,0,12.3,0,,1
2003/2/1 3:15,-1.8,2,66,2,22.1,2,45.5,2,12.3,2,,1
2003/2/1 3:30,-1.6,0,65,0,22.1,0,45,0,12.3,0,,1
2003/2/1 3:45,-1.8,2,66,2,22,2,45.5,2,12.3,2,,1
2003/2/1 4:00,-2,0,67,0,21.8,0,46,0,12.3,0,,1
2003/2/1 4:15,-2.1,2,63,2,22.3,2,45,2,12.4,2,,1
2003/2/1 4:30,-2.2,0,59,0,22.8,0,44,0,12.5,0,,1
2003/2/1 4:45,-2.3,2,58,2,22.9,2,43.5,2,12.6,2,,1
2003/2/1 5:00,-2.3,0,56,0,23,0,43,0,12.6,0,,1
2003/2/1 5:15,-2.1,2,56,2,23.2,2,42.5,2,12.7,2,,1
2003/2/1 5:30,-1.9,0,55,0,23.3,0,42,0,12.7,0,,1
2003/2/1 5:45,-1.8,2,57,2,23.3,2,41.5,2,12.8,2,,1
2003/2/1 6:00,-1.6,0,59,0,23.2,0,41,0,12.8,0,,1
2003/2/1 6:15,-1.9,2,59,2,23.2,2,40.5,2,12.8,2,,1
2003/2/1 6:30,-2.2,0,58,0,23.1,0,40,0,12.7,0,,1
2003/2/1 6:45,-1.9,2,58,2,23.2,2,39.5,2,12.7,2,,1
2003/2/1 7:00,-1.6,0,58,0,23.3,0,39,0,12.7,0,,1
2003/2/1 7:15,-1.8,2,58,2,23.2,2,39.5,2,12.7,2,,1
2003/2/1 7:30,-1.9,0,57,0,23.1,0,40,0,12.7,0,,1
2003/2/1 7:45,-1.8,2,58,2,22.9,2,41.5,2,12.7,2,,1
2003/2/1 8:00,-1.6,0,58,0,22.7,0,43,0,12.6,0,,1
2003/2/1 8:15,-1.7,2,57,2,22.6,2,41,2,12.8,2,,1
2003/2/1 8:30,-1.7,0,55,0,22.4,0,39,0,12.9,0,,1
2003/2/1 8:45,-1.7,2,54,2,22.6,2,40.5,2,12.8,2,,1
2003/2/1 9:00,-1.7,0,52,0,22.7,0,42,0,12.6,0,,1
2003/2/1 9:15,-0.8,2,51,2,22.9,2,46,2,12.6,2,,1
2003/2/1 9:30,0.2,0,50,0,23.1,0,50,0,12.6,0,,1
2003/2/1 9:45,0.3,2,51,2,23.1,2,57,2,12.6,2,,1
2003/2/1 10:00,0.3,0,51,0,23,0,64,0,12.5,0,,1
2003/2/1 10:15,0.2,2,50,2,23.2,2,62.5,2,12.8,2,,1
2003/2/1 10:30,0.1,0,49,0,23.4,0,61,0,13,0,,1
2003/2/1 10:45,0.4,2,48,2,23.1,2,63,2,12.8,2,,1
2003/2/1 11:00,0.7,0,47,0,22.8,0,65,0,12.6,0,,1
2003/2/1 11:15,1.2,2,48,2,23.2,2,62.5,2,12.6,2,,1
2003/2/1 11:30,1.7,0,48,0,23.5,0,60,0,12.6,0,,1
2003/2/1 11:45,1.8,2,48,2,23.3,2,59,2,12.5,2,,1
2003/2/1 12:00,1.8,0,48,0,23.1,0,58,0,12.3,0,,1
2003/2/1 12:15,1.7,2,51,2,23.1,2,56,2,12.2,2,,1
2003/2/1 12:30,1.5,0,53,0,23.1,0,54,0,12.1,0,,1
2003/2/1 12:45,1.4,2,51,2,23.1,2,53,2,12,2,,1
2003/2/1 13:00,1.2,0,48,0,23.1,0,52,0,11.9,0,,1
2003/2/1 13:15,1.3,2,47,2,22.2,2,46,2,12.7,2,,1
2003/2/1 13:30,1.4,0,46,0,21.3,0,40,0,13.5,0,,1
2003/2/1 13:45,1.7,2,47,2,21.3,2,41,2,14.8,2,,1
2003/2/1 14:00,1.9,0,48,0,21.2,0,42,0,16.1,0,,1
2003/2/1 14:15,1.7,2,49,2,21.1,2,41.5,2,16.6,2,,1
2003/2/1 14:30,1.4,0,50,0,21,0,41,0,17,0,,1
2003/2/1 14:45,1.5,2,50,2,21.8,2,40,2,16.4,2,,1
2003/2/1 15:00,1.5,0,50,0,22.5,0,39,0,15.7,0,,1
2003/2/1 15:15,1.3,2,51,2,22.8,2,39,2,15.1,2,,1
2003/2/1 15:30,1.1,0,51,0,23,0,39,0,14.5,0,,1
2003/2/1 15:45,1.1,2,50,2,23.3,2,41,2,14.3,2,,1
2003/2/1 16:00,1.1,0,48,0,23.5,0,43,0,14,0,,1
2003/2/1 16:15,1.6,2,49,2,22,2,40,2,14.4,2,,1
2003/2/1 16:30,2.1,0,49,0,20.4,0,37,0,14.8,0,,1
2003/2/1 16:45,2.1,2,50,2,19.9,2,37,2,15,2,,1
2003/2/1 17:00,2,0,50,0,19.4,0,37,0,15.1,0,,1
2003/2/1 17:15,1.9,2,51,2,19.2,2,36.5,2,15,2,,1
2003/2/1 17:30,1.8,0,51,0,18.9,0,36,0,14.9,0,,1
2003/2/1 17:45,1.7,2,52,2,18.8,2,36,2,14.8,2,,1
2003/2/1 18:00,1.6,0,52,0,18.6,0,36,0,14.7,0,,1
2003/2/1 18:15,1.5,2,53,2,18.4,2,35.5,2,14.6,2,,1
2003/2/1 18:30,1.4,0,54,0,18.2,0,35,0,14.5,0,,1
2003/2/1 18:45,1.3,2,55,2,18.1,2,35,2,14.4,2,,1
2003/2/1 19:00,1.2,0,55,0,17.9,0,35,0,14.3,0,,1
2003/2/1 19:15,0.9,2,59,2,17.8,2,35,2,14.2,2,,1
2003/2/1 19:30,0.5,0,63,0,17.6,0,35,0,14.1,0,,1
2003/2/1 19:45,-0.2,2,63,2,19.1,2,38.5,2,13.9,2,,1
2003/2/1 20:00,-0.8,0,62,0,20.5,0,42,0,13.7,0,,1
2003/2/1 20:15,-0.9,2,62,2,20.9,2,42.5,2,13.5,2,,1
2003/2/1 20:30,-0.9,0,62,0,21.3,0,43,0,13.3,0,,1
2003/2/1 20:45,-0.8,2,61,2,21.6,2,43.5,2,13.2,2,,1
2003/2/1 21:00,-0.7,0,60,0,21.8,0,44,0,13,0,,1
2003/2/1 21:15,-0.7,2,60,2,22.1,2,43,2,12.9,2,,1
2003/2/1 21:30,-0.6,0,59,0,22.3,0,42,0,12.7,0,,1
2003/2/1 21:45,-0.7,2,59,2,22.2,2,43,2,12.6,2,,1
2003/2/1 22:00,-0.7,0,59,0,22,0,44,0,12.5,0,,1
2003/2/1 22:15,-0.7,2,56,2,22.1,2,42.5,2,12.6,2,,1
2003/2/1 22:30,-0.6,0,53,0,22.2,0,41,0,12.7,0,,1
2003/2/1 22:45,-0.2,2,53,2,21.5,2,41,2,13,2,,1
2003/2/1 23:00,0.2,0,52,0,20.8,0,41,0,13.3,0,,1
2003/2/1 23:15,0.3,2,50,2,20.3,2,44,2,13.4,2,,1
2003/2/1 23:30,0.3,0,48,0,19.7,0,47,0,13.4,0,,1
2003/2/1 23:45,0.4,2,49,2,19.4,2,48.5,2,13.3,2,,1
2003/2/2 0:00,0.4,0,49,0,19.1,0,50,0,13.2,0,,1
2003/2/2 0:15,0.2,2,51,2,18.9,2,51,2,13.2,2,,1
2003/2/2 0:30,0,0,52,0,18.7,0,52,0,13.2,0,,1
2003/2/2 0:45,-0.4,2,52,2,18.6,2,52,2,13.2,2,,1
2003/2/2 1:00,-0.8,0,51,0,18.4,0,52,0,13.2,0,,1
2003/2/2 1:15,-0.6,2,53,2,18.3,2,52,2,13.3,2,,1
2003/2/2 1:30,-0.3,0,54,0,18.1,0,52,0,13.3,0,,1
2003/2/2 1:45,-0.8,2,55,2,18,2,52,2,13.3,2,,1
2003/2/2 2:00,-1.3,0,56,0,17.8,0,52,0,13.3,0,,1
2003/2/2 2:15,-1.5,2,56,2,17.7,2,51.5,2,13.4,2,,1
2003/2/2 2:30,-1.6,0,56,0,17.6,0,51,0,13.4,0,,1
2003/2/2 2:45,-1.8,2,57,2,17.5,2,51,2,13.4,2,,1
2003/2/2 3:00,-2,0,58,0,17.4,0,51,0,13.4,0,,1
2003/2/2 3:15,-2.4,2,58,2,17.3,2,51,2,13.4,2,,1
2003/2/2 3:30,-2.8,0,58,0,17.2,0,51,0,13.4,0,,1
2003/2/2 3:45,-3,2,58,2,17.2,2,50.5,2,13.5,2,,1
2003/2/2 4:00,-3.1,0,58,0,17.1,0,50,0,13.5,0,,1
2003/2/2 4:15,-3.2,2,58,2,17,2,50,2,13.5,2,,1
2003/2/2 4:30,-3.3,0,58,0,16.9,0,50,0,13.4,0,,1
2003/2/2 4:45,-3.4,2,59,2,16.8,2,49.5,2,13.4,2,,1
2003/2/2 5:00,-3.5,0,59,0,16.7,0,49,0,13.4,0,,1
2003/2/2 5:15,-3.8,2,59,2,16.7,2,48.5,2,13.4,2,,1
2003/2/2 5:30,-4,0,59,0,16.6,0,48,0,13.4,0,,1
2003/2/2 5:45,-4.1,2,59,2,16.5,2,48,2,13.4,2,,1
2003/2/2 6:00,-4.1,0,59,0,16.4,0,48,0,13.3,0,,1
2003/2/2 6:15,-4.2,2,59,2,16.4,2,47.5,2,13.3,2,,1
2003/2/2 6:30,-4.2,0,59,0,16.4,0,47,0,13.3,0,,1
2003/2/2 6:45,-4.3,2,59,2,16.3,2,46.5,2,13.3,2,,1
2003/2/2 7:00,-4.4,0,58,0,16.2,0,46,0,13.3,0,,1
2003/2/2 7:15,-4.5,2,58,2,16.1,2,45.5,2,13.3,2,,1
2003/2/2 7:30,-4.6,0,57,0,16,0,45,0,13.3,0,,1
2003/2/2 7:45,-4.3,2,56,2,16,2,45,2,13.3,2,,1
2003/2/2 8:00,-3.9,0,54,0,16,0,45,0,13.2,0,,1
2003/2/2 8:15,-3.5,2,54,2,16,2,45,2,13.2,2,,1
2003/2/2 8:30,-3,0,53,0,16,0,45,0,13.2,0,,1
2003/2/2 8:45,-2.9,2,55,2,16.6,2,45,2,13.2,2,,1
2003/2/2 9:00,-2.7,0,57,0,17.2,0,45,0,13.2,0,,1
2003/2/2 9:15,-2,2,55,2,18.5,2,44.5,2,13.5,2,,1
2003/2/2 9:30,-1.2,0,52,0,19.8,0,44,0,13.7,0,,1
2003/2/2 9:45,-0.5,2,49,2,20,2,43,2,13.7,2,,1
2003/2/2 10:00,0.3,0,45,0,20.1,0,42,0,13.7,0,,1
2003/2/2 10:15,0.8,2,44,2,20,2,44,2,13.7,2,,1
2003/2/2 10:30,1.2,0,42,0,19.9,0,46,0,13.6,0,,1
2003/2/2 10:45,1.6,2,42,2,20.2,2,47,2,13.8,2,,1
2003/2/2 11:00,1.9,0,41,0,20.5,0,48,0,14,0,,1
2003/2/2 11:15,2.9,2,39,2,18.4,2,35.5,2,14.3,2,,1
2003/2/2 11:30,3.8,0,36,0,16.2,0,23,0,14.5,0,,1
2003/2/2 11:45,4.2,2,36,2,16.5,2,31,2,14.7,2,,1
2003/2/2 12:00,4.6,0,35,0,16.8,0,39,0,14.8,0,,1
2003/2/2 12:15,4.6,2,34,2,16.7,2,41,2,14.6,2,,1
2003/2/2 12:30,4.5,0,33,0,16.6,0,43,0,14.4,0,,1
2003/2/2 12:45,4.6,2,37,2,16.5,2,43,2,14.3,2,,1
2003/2/2 13:00,4.6,0,41,0,16.4,0,43,0,14.2,0,,1
2003/2/2 13:15,3.6,2,40,2,16.7,2,43,2,14.1,2,,1
2003/2/2 13:30,2.6,0,39,0,17,0,43,0,14,0,,1
2003/2/2 13:45,2.7,2,39,2,17.7,2,43.5,2,14.3,2,,1
2003/2/2 14:00,2.8,0,38,0,18.3,0,44,0,14.6,0,,1
2003/2/2 14:15,2.9,2,38,2,18.3,2,44.5,2,15.3,2,,1
2003/2/2 14:30,3,0,37,0,18.2,0,45,0,16,0,,1
2003/2/2 14:45,3.1,2,39,2,18.3,2,44.5,2,16.4,2,,1
2003/2/2 15:00,3.2,0,40,0,18.3,0,44,0,16.7,0,,1
2003/2/2 15:15,3,2,42,2,18.7,2,43.5,2,16.6,2,,1
2003/2/2 15:30,2.8,0,43,0,19.1,0,43,0,16.5,0,,1
2003/2/2 15:45,2.5,2,42,2,19.8,2,44,2,15.8,2,,1
2003/2/2 16:00,2.2,0,41,0,20.5,0,45,0,15.1,0,,1
2003/2/2 16:15,2.5,2,40,2,20.5,2,45,2,15,2,,1
2003/2/2 16:30,2.8,0,38,0,20.5,0,45,0,14.9,0,,1
2003/2/2 16:45,3.1,2,38,2,19.7,2,47,2,14.7,2,,1
2003/2/2 17:00,3.4,0,38,0,18.8,0,49,0,14.5,0,,1
2003/2/2 17:15,3.3,2,39,2,18.4,2,50,2,14.4,2,,1
2003/2/2 17:30,3.2,0,40,0,18,0,51,0,14.3,0,,1
2003/2/2 17:45,3.1,2,43,2,17.8,2,51.5,2,14.3,2,,1
2003/2/2 18:00,2.9,0,46,0,17.5,0,52,0,14.2,0,,1
2003/2/2 18:15,2,2,49,2,18.5,2,50.5,2,14.5,2,,1
2003/2/2 18:30,1,0,51,0,19.4,0,49,0,14.8,0,,1
2003/2/2 18:45,1,2,51,2,20,2,48.5,2,15,2,,1
2003/2/2 19:00,0.9,0,50,0,20.6,0,48,0,15.2,0,,1
2003/2/2 19:15,0.8,2,54,2,20.8,2,50,2,15.2,2,,1
2003/2/2 19:30,0.6,0,57,0,20.9,0,52,0,15.2,0,,1
2003/2/2 19:45,0.2,2,58,2,21.2,2,55,2,15.3,2,,1
2003/2/2 20:00,-0.2,0,59,0,21.5,0,58,0,15.4,0,,1
2003/2/2 20:15,-0.5,2,60,2,21.3,2,56.5,2,15.9,2,,1
2003/2/2 20:30,-0.8,0,61,0,21,0,55,0,16.3,0,,1
2003/2/2 20:45,-1,2,63,2,21.4,2,54.5,2,16.2,2,,1
2003/2/2 21:00,-1.2,0,64,0,21.7,0,54,0,16.1,0,,1
2003/2/2 21:15,-1.4,2,65,2,21.9,2,52.5,2,15.9,2,,1
2003/2/2 21:30,-1.6,0,66,0,22.1,0,51,0,15.7,0,,1
2003/2/2 21:45,-1.5,2,65,2,22.1,2,51.5,2,15.6,2,,1
2003/2/2 22:00,-1.4,0,63,0,22.1,0,52,0,15.4,0,,1
2003/2/2 22:15,-1.4,2,65,2,21.9,2,55,2,15.5,2,,1
2003/2/2 22:30,-1.4,0,66,0,21.6,0,58,0,15.6,0,,1
2003/2/2 22:45,-1.6,2,68,2,21.9,2,60.5,2,15.5,2,,1
2003/2/2 23:00,-1.7,0,70,0,22.1,0,63,0,15.3,0,,1
2003/2/2 23:15,-2,2,71,2,22.1,2,64,2,15.4,2,,1
2003/2/2 23:30,-2.2,0,72,0,22.1,0,65,0,15.4,0,,1
2003/2/2 23:45,-2.3,2,73,2,22.2,2,64.5,2,15.3,2,,1
2003/2/3 0:00,-2.3,0,73,0,22.3,0,64,0,15.2,0,,1
2003/2/3 0:15,-2.5,2,71,2,22.4,2,63.5,2,15.1,2,,1
2003/2/3 0:30,-2.7,0,69,0,22.4,0,63,0,15,0,,1
2003/2/3 0:45,-2.9,2,69,2,22,2,62.5,2,15.1,2,,1
2003/2/3 1:00,-3.1,0,69,0,21.6,0,62,0,15.2,0,,1
2003/2/3 1:15,-3.3,2,70,2,21.9,2,61,2,15.2,2,,1
2003/2/3 1:30,-3.4,0,71,0,22.1,0,60,0,15.1,0,,1
2003/2/3 1:45,-3.5,2,70,2,22.1,2,59.5,2,15.1,2,,1
2003/2/3 2:00,-3.5,0,69,0,22.1,0,59,0,15,0,,1
2003/2/3 2:15,-3.7,2,69,2,21.9,2,58.5,2,15,2,,1
2003/2/3 2:30,-3.8,0,69,0,21.6,0,58,0,15,0,,1
2003/2/3 2:45,-4,2,70,2,21.8,2,57,2,15,2,,1
2003/2/3 3:00,-4.2,0,70,0,22,0,56,0,14.9,0,,1
2003/2/3 3:15,-4.3,2,70,2,22.1,2,55.5,2,14.9,2,,1
2003/2/3 3:30,-4.4,0,70,0,22.1,0,55,0,14.9,0,,1
2003/2/3 3:45,-4.4,2,70,2,21.9,2,54.5,2,14.9,2,,1
2003/2/3 4:00,-4.3,0,69,0,21.6,0,54,0,14.9,0,,1
2003/2/3 4:15,-4.6,2,70,2,21.8,2,53.5,2,14.9,2,,1
2003/2/3 4:30,-4.9,0,70,0,22,0,53,0,14.8,0,,1
2003/2/3 4:45,-4.8,2,72,2,22.2,2,52,2,14.8,2,,1
2003/2/3 5:00,-4.7,0,73,0,22.4,0,51,0,14.8,0,,1
2003/2/3 5:15,-4.5,2,71,2,22.1,2,51.5,2,14.8,2,,1
2003/2/3 5:30,-4.3,0,69,0,21.8,0,52,0,14.8,0,,1
2003/2/3 5:45,-4.6,2,71,2,22,2,52,2,14.8,2,,1
2003/2/3 6:00,-4.9,0,72,0,22.2,0,52,0,14.8,0,,1
2003/2/3 6:15,-5.1,2,74,2,22.7,2,51.5,2,15.1,2,,1
2003/2/3 6:30,-5.2,0,75,0,23.1,0,51,0,15.3,0,,1
2003/2/3 6:45,-4.9,2,72,2,22.7,2,49,2,15.6,2,,1
2003/2/3 7:00,-4.6,0,69,0,22.2,0,47,0,15.8,0,,1
2003/2/3 7:15,-5.2,2,70,2,21.9,2,48,2,16.7,2,,1
2003/2/3 7:30,-5.7,0,70,0,21.5,0,49,0,17.5,0,,1
2003/2/3 7:45,-4.8,2,66,2,21.5,2,51,2,17.3,2,,1
2003/2/3 8:00,-3.8,0,61,0,21.5,0,53,0,17,0,,1
2003/2/3 8:15,-3.3,2,59,2,20.4,2,51.5,2,17.1,2,,1
2003/2/3 8:30,-2.7,0,57,0,19.2,0,50,0,17.1,0,,1
2003/2/3 8:45,-2.2,2,56,2,19,2,50.5,2,17,2,,1
2003/2/3 9:00,-1.6,0,55,0,18.8,0,51,0,16.8,0,,1
2003/2/3 9:15,-0.9,2,53,2,18.7,2,51.5,2,16.7,2,,1
2003/2/3 9:30,-0.1,0,50,0,18.5,0,52,0,16.5,0,,1
2003/2/3 9:45,0.7,2,48,2,18.4,2,52,2,16.4,2,,1
2003/2/3 10:00,1.4,0,46,0,18.3,0,52,0,16.2,0,,1
2003/2/3 10:15,1.9,2,45,2,18.2,2,52,2,16.1,2,,1
2003/2/3 10:30,2.3,0,43,0,18,0,52,0,15.9,0,,1
2003/2/3 10:45,3.1,2,42,2,17.9,2,51.5,2,15.8,2,,1
2003/2/3 11:00,3.8,0,40,0,17.8,0,51,0,15.6,0,,1
2003/2/3 11:15,4.3,2,38,2,17.7,2,50.5,2,15.5,2,,1
2003/2/3 11:30,4.8,0,36,0,17.6,0,50,0,15.3,0,,1
2003/2/3 11:45,5.4,2,35,2,17.5,2,50,2,15.2,2,,1
2003/2/3 12:00,5.9,0,33,0,17.4,0,50,0,15.1,0,,1
2003/2/3 12:15,5.7,2,33,2,17.3,2,49.5,2,15,2,,1
2003/2/3 12:30,5.4,0,33,0,17.2,0,49,0,14.9,0,,1
2003/2/3 12:45,5.5,2,34,2,17.2,2,48.5,2,14.8,2,,1
2003/2/3 13:00,5.5,0,34,0,17.1,0,48,0,14.7,0,,1
2003/2/3 13:15,5.6,2,34,2,17,2,48,2,14.6,2,,1
2003/2/3 13:30,5.6,0,34,0,16.9,0,48,0,14.5,0,,1
2003/2/3 13:45,5.7,2,35,2,16.9,2,47.5,2,14.5,2,,1
2003/2/3 14:00,5.7,0,35,0,16.8,0,47,0,14.4,0,,1
2003/2/3 14:15,5.8,2,38,2,16.8,2,47,2,14.4,2,,1
2003/2/3 14:30,5.8,0,41,0,16.7,0,47,0,14.3,0,,1
2003/2/3 14:45,5.8,2,41,2,16.7,2,46.5,2,14.3,2,,1
2003/2/3 15:00,5.7,0,41,0,16.7,0,46,0,14.2,0,,1
2003/2/3 15:15,5.7,2,41,2,16.6,2,46,2,14.2,2,,1
2003/2/3 15:30,5.7,0,41,0,16.5,0,46,0,14.1,0,,1
2003/2/3 15:45,5.8,2,42,2,16.5,2,45.5,2,14.1,2,,1
2003/2/3 16:00,5.9,0,42,0,16.4,0,45,0,14,0,,1
2003/2/3 16:15,5.8,2,42,2,16.4,2,45,2,14,2,,1
2003/2/3 16:30,5.6,0,42,0,16.4,0,45,0,13.9,0,,1
2003/2/3 16:45,5.5,2,42,2,16.4,2,44.5,2,13.9,2,,1
2003/2/3 17:00,5.3,0,42,0,16.3,0,44,0,13.8,0,,1
2003/2/3 17:15,5.2,2,41,2,16.2,2,44,2,13.8,2,,1
2003/2/3 17:30,5,0,40,0,16.1,0,44,0,13.7,0,,1
2003/2/3 17:45,4.8,2,43,2,16.1,2,43.5,2,13.7,2,,1
2003/2/3 18:00,4.6,0,45,0,16.1,0,43,0,13.6,0,,1
2003/2/3 18:15,4.4,2,48,2,16,2,42.5,2,13.5,2,,1
2003/2/3 18:30,4.2,0,51,0,15.9,0,42,0,13.4,0,,1
2003/2/3 18:45,4,2,54,2,15.9,2,42,2,13.4,2,,1
2003/2/3 19:00,3.8,0,57,0,15.8,0,42,0,13.3,0,,1
2003/2/3 19:15,2.5,2,62,2,16.4,2,43,2,13.6,2,,1
2003/2/3 19:30,1.1,0,66,0,17,0,44,0,13.8,0,,1
2003/2/3 19:45,0.8,2,66,2,17.7,2,44,2,13.5,2,,1
2003/2/3 20:00,0.4,0,66,0,18.4,0,44,0,13.2,0,,1
2003/2/3 20:15,0,2,68,2,18.1,2,42.5,2,13.7,2,,1
2003/2/3 20:30,-0.4,0,69,0,17.7,0,41,0,14.1,0,,1
2003/2/3 20:45,-0.5,2,70,2,18.5,2,41.5,2,13.8,2,,1
2003/2/3 21:00,-0.5,0,70,0,19.2,0,42,0,13.5,0,,1
2003/2/3 21:15,-0.7,2,70,2,19.5,2,43,2,13.5,2,,1
2003/2/3 21:30,-0.8,0,70,0,19.7,0,44,0,13.5,0,,1
2003/2/3 21:45,-0.9,2,68,2,20.1,2,50,2,14.2,2,,1
2003/2/3 22:00,-0.9,0,65,0,20.5,0,56,0,14.8,0,,1
2003/2/3 22:15,-0.3,2,65,2,19.4,2,56.5,2,14.6,2,,1
2003/2/3 22:30,0.4,0,64,0,18.3,0,57,0,14.4,0,,1
2003/2/3 22:45,0.4,2,64,2,17.9,2,57.5,2,14.3,2,,1
2003/2/3 23:00,0.4,0,64,0,17.5,0,58,0,14.2,0,,1
2003/2/3 23:15,0.4,2,64,2,17.3,2,58.5,2,14.3,2,,1
2003/2/3 23:30,0.3,0,64,0,17.1,0,59,0,14.4,0,,1
2003/2/3 23:45,0.2,2,65,2,17,2,58.5,2,14.3,2,,1
2003/2/4 0:00,0,0,65,0,16.9,0,58,0,14.2,0,,1
2003/2/4 0:15,0.1,2,65,2,16.8,2,58,2,14.2,2,,1
2003/2/4 0:30,0.2,0,65,0,16.6,0,58,0,14.1,0,,1
2003/2/4 0:45,0.2,2,65,2,16.6,2,57.5,2,14.1,2,,1
2003/2/4 1:00,0.1,0,65,0,16.5,0,57,0,14,0,,1
2003/2/4 1:15,0,2,66,2,16.4,2,56.5,2,14,2,,1
2003/2/4 1:30,-0.1,0,66,0,16.3,0,56,0,14,0,,1
2003/2/4 1:45,-0.4,2,66,2,16.2,2,55.5,2,13.1,2,,1
2003/2/4 2:00,-0.6,0,66,0,16.1,0,55,0,12.2,0,,1
2003/2/4 2:15,-0.7,2,66,2,16,2,55,2,12.2,2,,1
2003/2/4 2:30,-0.7,0,66,0,15.9,0,55,0,12.2,0,,1
2003/2/4 2:45,-0.8,2,67,2,15.9,2,54.5,2,12.2,2,,1
2003/2/4 3:00,-0.9,0,67,0,15.8,0,54,0,12.2,0,,1
2003/2/4 3:15,-1,2,67,2,15.7,2,53.5,2,12.2,2,,1
2003/2/4 3:30,-1,0,67,0,15.6,0,53,0,12.2,0,,1
2003/2/4 3:45,-1.1,2,67,2,15.6,2,52.5,2,12.2,2,,1
2003/2/4 4:00,-1.1,0,66,0,15.6,0,52,0,12.2,0,,1
2003/2/4 4:15,-1.2,2,65,2,15.5,2,52,2,12.3,2,,1
2003/2/4 4:30,-1.2,0,64,0,15.4,0,52,0,12.3,0,,1
2003/2/4 4:45,-1.2,2,64,2,15.4,2,51.5,2,12.3,2,,1
2003/2/4 5:00,-1.2,0,64,0,15.3,0,51,0,12.3,0,,1
2003/2/4 5:15,-1.2,2,65,2,15.3,2,51,2,12.3,2,,1
2003/2/4 5:30,-1.2,0,65,0,15.2,0,51,0,12.3,0,,1
2003/2/4 5:45,-1.3,2,67,2,15.2,2,50.5,2,12.4,2,,1
2003/2/4 6:00,-1.3,0,68,0,15.1,0,50,0,12.5,0,,1
2003/2/4 6:15,-2.3,2,69,2,16.4,2,49,2,12.6,2,,1
2003/2/4 6:30,-3.2,0,70,0,17.7,0,48,0,12.6,0,,1
2003/2/4 6:45,-2.9,2,70,2,18.6,2,49,2,12.7,2,,1
2003/2/4 7:00,-2.6,0,70,0,19.4,0,50,0,12.7,0,,1
2003/2/4 7:15,-2.9,2,72,2,18.6,2,48.5,2,12.8,2,,1
2003/2/4 7:30,-3.2,0,73,0,17.8,0,47,0,12.8,0,,1
2003/2/4 7:45,-2.5,2,70,2,17.7,2,47.5,2,12.8,2,,1
2003/2/4 8:00,-1.8,0,66,0,17.5,0,48,0,12.7,0,,1
2003/2/4 8:15,-1.4,2,65,2,17.1,2,51,2,14.2,2,,1
2003/2/4 8:30,-1,0,63,0,16.6,0,54,0,15.7,0,,1
2003/2/4 8:45,-0.8,2,61,2,16.4,2,55,2,15.4,2,,1
2003/2/4 9:00,-0.5,0,59,0,16.2,0,56,0,15.1,0,,1
2003/2/4 9:15,0.2,2,56,2,16.1,2,57,2,15,2,,1
2003/2/4 9:30,0.9,0,53,0,16,0,58,0,14.8,0,,1
2003/2/4 9:45,1.4,2,49,2,16,2,58.5,2,14.7,2,,1
2003/2/4 10:00,1.9,0,45,0,15.9,0,59,0,14.6,0,,1
2003/2/4 10:15,2.4,2,43,2,15.8,2,59,2,14.5,2,,1
2003/2/4 10:30,2.8,0,40,0,15.7,0,59,0,14.4,0,,1
2003/2/4 10:45,3.5,2,39,2,15.7,2,58.5,2,14.3,2,,1
2003/2/4 11:00,4.2,0,37,0,15.6,0,58,0,14.2,0,,1
2003/2/4 11:15,4.3,2,37,2,15.6,2,58,2,14.2,2,,1
2003/2/4 11:30,4.4,0,36,0,15.5,0,58,0,14.1,0,,1
2003/2/4 11:45,4.8,2,35,2,15.5,2,57.5,2,14,2,,1
2003/2/4 12:00,5.1,0,34,0,15.4,0,57,0,13.9,0,,1
2003/2/4 12:15,5.1,2,35,2,15.4,2,56,2,13.9,2,,1
2003/2/4 12:30,5,0,35,0,15.3,0,55,0,13.8,0,,1
2003/2/4 12:45,5.1,2,36,2,15.3,2,54.5,2,13.8,2,,1
2003/2/4 13:00,5.2,0,36,0,15.2,0,54,0,13.7,0,,1
2003/2/4 13:15,5.3,2,36,2,15.2,2,53.5,2,13.7,2,,1
2003/2/4 13:30,5.3,0,36,0,15.1,0,53,0,13.6,0,,1
2003/2/4 13:45,5.4,2,39,2,15.1,2,52.5,2,13.6,2,,1
2003/2/4 14:00,5.4,0,41,0,15,0,52,0,13.5,0,,1
2003/2/4 14:15,5.4,2,40,2,15,2,51,2,13.5,2,,1
2003/2/4 14:30,5.3,0,39,0,15,0,50,0,13.4,0,,1
2003/2/4 14:45,5.4,2,40,2,15,2,49.5,2,13.4,2,,1
2003/2/4 15:00,5.4,0,41,0,14.9,0,49,0,13.3,0,,1
2003/2/4 15:15,5.4,2,42,2,14.9,2,48.5,2,13.3,2,,1
2003/2/4 15:30,5.4,0,42,0,14.9,0,48,0,13.2,0,,1
2003/2/4 15:45,5.3,2,42,2,14.9,2,47.5,2,13.2,2,,1
2003/2/4 16:00,5.1,0,42,0,14.8,0,47,0,13.1,0,,1
2003/2/4 16:15,5,2,44,2,14.7,2,47,2,13.1,2,,1
2003/2/4 16:30,4.8,0,45,0,14.6,0,47,0,13.1,0,,1
2003/2/4 16:45,4.6,2,46,2,14.7,2,47,2,13.1,2,,1
2003/2/4 17:00,4.3,0,46,0,14.7,0,47,0,13,0,,1
2003/2/4 17:15,4.3,2,46,2,14.7,2,46.5,2,13,2,,1
2003/2/4 17:30,4.3,0,46,0,14.6,0,46,0,12.9,0,,1
2003/2/4 17:45,4.2,2,48,2,14.6,2,45.5,2,12.9,2,,1
2003/2/4 18:00,4,0,49,0,14.5,0,45,0,12.8,0,,1
2003/2/4 18:15,4,2,50,2,14.5,2,45,2,12.8,2,,1
2003/2/4 18:30,3.9,0,50,0,14.5,0,45,0,12.7,0,,1
2003/2/4 18:45,3.5,2,52,2,14.5,2,45,2,12.7,2,,1
2003/2/4 19:00,3.1,0,53,0,14.4,0,45,0,12.6,0,,1
2003/2/4 19:15,2.9,2,55,2,14.4,2,45,2,12.6,2,,1
2003/2/4 19:30,2.7,0,57,0,14.3,0,45,0,12.6,0,,1
2003/2/4 19:45,2.4,2,59,2,14.3,2,45,2,12.6,2,,1
2003/2/4 20:00,2.1,0,60,0,14.3,0,45,0,12.5,0,,1
2003/2/4 20:15,2,2,60,2,14.3,2,45,2,12.5,2,,1
2003/2/4 20:30,1.8,0,59,0,14.2,0,45,0,12.4,0,,1
2003/2/4 20:45,1.7,2,60,2,14.2,2,44.5,2,12.4,2,,1
2003/2/4 21:00,1.5,0,60,0,14.1,0,44,0,12.3,0,,1
2003/2/4 21:15,0.7,2,65,2,14.1,2,44.5,2,12.3,2,,1
2003/2/4 21:30,-0.1,0,69,0,14,0,45,0,12.3,0,,1
2003/2/4 21:45,-0.9,2,71,2,15.4,2,45,2,12.7,2,,1
2003/2/4 22:00,-1.6,0,72,0,16.8,0,45,0,13,0,,1
2003/2/4 22:15,-1.8,2,74,2,17.2,2,45.5,2,13.1,2,,1
2003/2/4 22:30,-1.9,0,75,0,17.6,0,46,0,13.2,0,,1
2003/2/4 22:45,-1.6,2,74,2,17.8,2,47.5,2,13.4,2,,1
2003/2/4 23:00,-1.3,0,73,0,17.9,0,49,0,13.5,0,,1
2003/2/4 23:15,-1.2,2,71,2,17.3,2,50,2,13.6,2,,1
2003/2/4 23:30,-1,0,68,0,16.7,0,51,0,13.7,0,,1
2003/2/4 23:45,-1,2,67,2,16.3,2,51.5,2,13.7,2,,1
2003/2/5 0:00,-0.9,0,66,0,15.9,0,52,0,13.7,0,,1
2003/2/5 0:15,-0.9,2,66,2,15.8,2,52,2,13.7,2,,1
2003/2/5 0:30,-0.9,0,66,0,15.6,0,52,0,13.7,0,,1
2003/2/5 0:45,-1,2,67,2,15.5,2,52,2,13.7,2,,1
2003/2/5 1:00,-1.1,0,67,0,15.3,0,52,0,13.7,0,,1
2003/2/5 1:15,-1.5,2,67,2,15.2,2,52,2,13.7,2,,1
2003/2/5 1:30,-1.8,0,67,0,15,0,52,0,13.6,0,,1
2003/2/5 1:45,-1.9,2,67,2,15,2,52,2,13.6,2,,1
2003/2/5 2:00,-1.9,0,66,0,14.9,0,52,0,13.6,0,,1
2003/2/5 2:15,-2,2,66,2,14.9,2,52,2,13.6,2,,1
2003/2/5 2:30,-2.1,0,66,0,14.8,0,52,0,13.6,0,,1
2003/2/5 2:45,-2.3,2,66,2,14.7,2,51.5,2,13.6,2,,1
2003/2/5 3:00,-2.4,0,66,0,14.6,0,51,0,13.6,0,,1
2003/2/5 3:15,-2.5,2,66,2,14.6,2,51,2,13.6,2,,1
2003/2/5 3:30,-2.6,0,65,0,14.6,0,51,0,13.6,0,,1
2003/2/5 3:45,-2.7,2,65,2,14.6,2,51,2,13.6,2,,1
2003/2/5 4:00,-2.7,0,64,0,14.5,0,51,0,13.5,0,,1
2003/2/5 4:15,-2.8,2,65,2,14.5,2,51,2,13.5,2,,1
2003/2/5 4:30,-2.9,0,66,0,14.4,0,51,0,13.5,0,,1
2003/2/5 4:45,-3,2,65,2,14.4,2,51,2,13.5,2,,1
2003/2/5 5:00,-3.1,0,64,0,14.3,0,51,0,13.5,0,,1
2003/2/5 5:15,-3.3,2,64,2,14.3,2,51,2,13.5,2,,1
2003/2/5 5:30,-3.4,0,64,0,14.2,0,51,0,13.5,0,,1
2003/2/5 5:45,-3.5,2,64,2,14.2,2,51,2,13.5,2,,1
2003/2/5 6:00,-3.5,0,64,0,14.2,0,51,0,13.5,0,,1
2003/2/5 6:15,-3.6,2,64,2,14.2,2,51,2,13.5,2,,1
2003/2/5 6:30,-3.7,0,64,0,14.1,0,51,0,13.5,0,,1
2003/2/5 6:45,-3.9,2,66,2,14.1,2,50.5,2,13.5,2,,1
2003/2/5 7:00,-4.1,0,67,0,14,0,50,0,13.4,0,,1
2003/2/5 7:15,-5.1,2,68,2,14.6,2,51,2,13.4,2,,1
2003/2/5 7:30,-6,0,69,0,15.2,0,52,0,13.4,0,,1
2003/2/5 7:45,-5.8,2,69,2,16.2,2,52.5,2,13.6,2,,1
2003/2/5 8:00,-5.5,0,68,0,17.1,0,53,0,13.7,0,,1
2003/2/5 8:15,-5.1,2,68,2,18.7,2,60,2,13.7,2,,1
2003/2/5 8:30,-4.6,0,68,0,20.3,0,67,0,13.7,0,,1
2003/2/5 8:45,-4,2,67,2,20.9,2,66,2,13.8,2,,1
2003/2/5 9:00,-3.4,0,66,0,21.5,0,65,0,13.8,0,,1
2003/2/5 9:15,-2.9,2,65,2,21.8,2,65,2,13.8,2,,1
2003/2/5 9:30,-2.3,0,64,0,22.1,0,65,0,13.7,0,,1
2003/2/5 9:45,-1.4,2,59,2,22,2,62.5,2,13.7,2,,1
2003/2/5 10:00,-0.5,0,53,0,21.8,0,60,0,13.7,0,,1
2003/2/5 10:15,0.7,2,51,2,19.5,2,60.5,2,14.3,2,,1
2003/2/5 10:30,1.9,0,49,0,17.2,0,61,0,14.8,0,,1
2003/2/5 10:45,2.5,2,48,2,16.9,2,58.5,2,14.7,2,,1
2003/2/5 11:00,3,0,47,0,16.5,0,56,0,14.6,0,,1
2003/2/5 11:15,2.9,2,49,2,16.3,2,55,2,14.5,2,,1
2003/2/5 11:30,2.7,0,51,0,16,0,54,0,14.4,0,,1
2003/2/5 11:45,2.2,2,52,2,18.5,2,51.5,2,14.2,2,,1
2003/2/5 12:00,1.6,0,52,0,20.9,0,49,0,13.9,0,,1
2003/2/5 12:15,1.3,2,50,2,21.4,2,47.5,2,13.9,2,,1
2003/2/5 12:30,1,0,47,0,21.9,0,46,0,13.8,0,,1
2003/2/5 12:45,1.2,2,44,2,21.8,2,46,2,13.8,2,,1
2003/2/5 13:00,1.4,0,41,0,21.7,0,46,0,13.7,0,,1
2003/2/5 13:15,1.8,2,40,2,21.9,2,45,2,13.8,2,,1
2003/2/5 13:30,2.1,0,38,0,22,0,44,0,13.8,0,,1
2003/2/5 13:45,2.2,2,39,2,22.3,2,44.5,2,13.9,2,,1
2003/2/5 14:00,2.2,0,40,0,22.5,0,45,0,13.9,0,,1
2003/2/5 14:15,2.1,2,40,2,22.6,2,45,2,13.9,2,,1
2003/2/5 14:30,1.9,0,40,0,22.7,0,45,0,13.9,0,,1
2003/2/5 14:45,1.9,2,41,2,22.9,2,44,2,13.9,2,,1
2003/2/5 15:00,1.9,0,42,0,23.1,0,43,0,13.8,0,,1
2003/2/5 15:15,1.9,2,43,2,22.9,2,49,2,13.7,2,,1
2003/2/5 15:30,1.8,0,43,0,22.6,0,55,0,13.6,0,,1
2003/2/5 15:45,1.9,2,44,2,22.7,2,56,2,13.5,2,,1
2003/2/5 16:00,1.9,0,45,0,22.8,0,57,0,13.4,0,,1
2003/2/5 16:15,1.7,2,46,2,22.9,2,54,2,13.7,2,,1
2003/2/5 16:30,1.5,0,46,0,23,0,51,0,13.9,0,,1
2003/2/5 16:45,1.3,2,49,2,23,2,54,2,13.7,2,,1
2003/2/5 17:00,1.1,0,51,0,23,0,57,0,13.5,0,,1
2003/2/5 17:15,1,2,51,2,22.7,2,58,2,13.4,2,,1
2003/2/5 17:30,0.9,0,51,0,22.3,0,59,0,13.2,0,,1
2003/2/5 17:45,0.9,2,50,2,21.8,2,58.5,2,13.3,2,,1
2003/2/5 18:00,0.8,0,49,0,21.2,0,58,0,13.4,0,,1
2003/2/5 18:15,0.9,2,49,2,21.5,2,59.5,2,13.5,2,,1
2003/2/5 18:30,0.9,0,48,0,21.8,0,61,0,13.5,0,,1
2003/2/5 18:45,0.8,2,49,2,21.7,2,62,2,13.4,2,,1
2003/2/5 19:00,0.7,0,50,0,21.6,0,63,0,13.2,0,,1
2003/2/5 19:15,0.6,2,51,2,21.9,2,67,2,13.2,2,,1
2003/2/5 19:30,0.4,0,52,0,22.1,0,71,0,13.1,0,,1
2003/2/5 19:45,0.3,2,52,2,22.1,2,67.5,2,13.1,2,,1
2003/2/5 20:00,0.1,0,52,0,22.1,0,64,0,13.1,0,,1
2003/2/5 20:15,0.1,2,53,2,22.1,2,62,2,13.1,2,,1
2003/2/5 20:30,0,0,53,0,22,0,60,0,13,0,,1
2003/2/5 20:45,-0.4,2,54,2,22,2,59,2,13,2,,1
2003/2/5 21:00,-0.7,0,54,0,21.9,0,58,0,13,0,,1
2003/2/5 21:15,-1,2,53,2,22,2,57,2,13.1,2,,1
2003/2/5 21:30,-1.2,0,52,0,22,0,56,0,13.1,0,,1
2003/2/5 21:45,-1.1,2,52,2,21.7,2,56,2,13.3,2,,1
2003/2/5 22:00,-0.9,0,52,0,21.4,0,56,0,13.5,0,,1
2003/2/5 22:15,-0.7,2,53,2,21,2,55,2,13.7,2,,1
2003/2/5 22:30,-0.5,0,53,0,20.6,0,54,0,13.8,0,,1
2003/2/5 22:45,-0.5,2,54,2,20,2,55.5,2,13.9,2,,1
2003/2/5 23:00,-0.5,0,54,0,19.3,0,57,0,13.9,0,,1
2003/2/5 23:15,-0.5,2,56,2,19.1,2,57,2,14,2,,1
2003/2/5 23:30,-0.5,0,57,0,18.8,0,57,0,14.1,0,,1
2003/2/5 23:45,-0.6,2,58,2,18.5,2,57,2,14.3,2,,1
2003/2/6 0:00,-0.7,0,58,0,18.1,0,57,0,14.5,0,,1
2003/2/6 0:15,-0.8,2,59,2,18,2,57,2,14.4,2,,1
2003/2/6 0:30,-0.8,0,59,0,17.9,0,57,0,14.3,0,,1
2003/2/6 0:45,-0.9,2,59,2,17.8,2,58,2,14.3,2,,1
2003/2/6 1:00,-1,0,59,0,17.7,0,59,0,14.3,0,,1
2003/2/6 1:15,-1.1,2,59,2,17.6,2,58.5,2,14.3,2,,1
2003/2/6 1:30,-1.1,0,59,0,17.5,0,58,0,14.2,0,,1